Location: Paris
(48.6709°N, 2.3750°E)
Time: 13:24:01
(UTC+02:00)

YUBILEINY - Pass Details

Date: 29 June 2022
Orbit: 1478 x 1509 km, 82.5° (Epoch: 08 August)

Event Time Altitude Azimuth Distance (km) Brightness Sun altitude
Rises 22:41:24 0° 272° (W) 4,651 ? -6.3°
Reaches altitude 10° 22:48:01 10° 307° (NW) 3,675 ? -7.0°
Maximum altitude 22:49:57 11° 320° (NW) 3,616 ? -7.2°
Drops below altitude 10° 22:51:52 10° 333° (NNW) 3,677 ? -7.4°
Sets 22:58:33 0° 9° (N) 4,657 ? -8.1°
